[[{"header":{"parameterUnit":"m.s-1","parameterCategory":1,"la1":30.2991,"la2":30.254,"lo1":-89.0895,"lo2":-89.0444,"dy":0.0017,"dx":0.0017,"nx":28,"ny":28,"refTime":"2026-03-04T09:00:00:Z","depth":0,"parameterNumber":2,"parameterNumberName":"U-component_of_WINDS"},"data":[0,0,0,0,0,0,0,0,0,0,0,0,0,0,0,0,0,0,0,0,0,0,0,0,0,0,0,0,0,0,0,0,0,0,0,0,0,0,0,0,0,0,0,0,0,0,0,0,0,0,0,0,0,0,0,0,0,0,-4.8932,-4.8933,0,-4.9039,-4.904,-4.9041,-4.9001,-4.8999,-4.8996,-4.8994,-4.9103,-4.9108,-4.9113,0,0,0,0,0,0,0,0,0,0,0,0,0,-4.8696,-4.87,-4.8932,-4.8933,-4.8935,-4.9039,-4.904,-4.9041,-4.9002,-4.8999,-4.8996,-4.8993,-4.9101,-4.9108,-4.9114,0,0,0,0,0,0,0,0,0,0,0,0,0,-4.88,-4.8702,-4.8932,-4.8927,-4.8928,-4.9038,-4.904,-4.9042,-4.9002,-4.8999,-4.8995,-4.8992,-4.9099,-4.9107,-4.9115,-4.9235,0,0,-4.9138,-4.9142,0,0,0,0,0,0,0,0,-4.8794,-4.8809,-4.8927,-4.8928,-4.8929,-4.9003,-4.8997,-4.9107,-4.9003,-4.8974,-4.8994,-4.899,-4.9073,-4.9082,-4.911,-4.9241,-4.9245,-4.9139,-4.9144,-4.9147,-4.9149,0,0,0,0,0,0,0,-4.8787,-4.8804,-4.8974,-4.8928,-4.893,-4.8921,-4.8931,-4.9017,-4.9043,-4.8976,-4.8974,-4.8987,-4.9073,-4.9103,-4.9113,-4.9247,-4.9139,-4.9146,-4.915,-4.9153,-4.9484,-4.9488,0,0,0,0,0,0,-4.8779,-4.8798,-4.8971,-4.8977,-4.8851,-4.8928,-4.894,-4.8983,-4.9041,-4.9047,-4.899,-4.8985,-4.9092,-4.9104,-4.9116,-4.9262,-4.9147,-4.9154,-4.9159,-4.948,-4.9485,-4.9489,0,0,0,0,0,0,-4.8774,-4.8795,-4.8966,-4.8887,-4.8908,-4.8936,-4.8984,-4.8987,-4.9017,-4.9052,-4.9056,-4.9016,-4.9089,-4.9105,-4.9207,-4.9265,-4.9158,-4.9165,-4.9475,-4.9481,-4.9487,-4.9555,0,0,0,0,0,0,-4.8768,-4.8793,-4.8839,-4.8888,-4.8913,-4.9054,-4.8988,-4.8992,-4.9031,-4.9025,-4.9078,-4.9083,-4.9088,-4.9195,-4.9214,-4.9274,-4.9171,-4.947,-4.9478,-4.9485,-4.9547,-4.9562,-4.9575,0,0,0,0,0,-4.8759,-4.8853,-4.8841,-4.8862,-4.897,-4.9058,-4.9071,-4.9075,-4.9036,-4.9082,-4.9105,-4.9081,-4.9257,-4.9206,-4.9227,-4.929,-4.9466,-4.9476,-4.9485,-4.9541,-4.9559,-4.9575,0,0,0,0,0,0,-4.8808,-4.8859,-4.8846,-4.8959,-4.9005,-4.9051,-4.9108,-4.9094,-4.9151,-4.9143,-4.9146,-4.9158,-4.9263,-4.9287,-4.923,-4.9412,-4.9356,-4.9369,-4.9391,-4.9409,-4.9423,-4.9413,-4.9177,0,0,0,0,0,-4.8832,-4.8899,-4.894,-4.9035,-4.9059,-4.9081,-4.9119,-4.9118,-4.9165,-4.9184,-4.9214,-4.9261,-4.9327,-4.9369,-4.9432,-4.9552,-4.9563,-4.9606,-4.962,-4.9631,-4.9643,-4.9709,-4.9729,-4.952,-4.952,-4.952,0,0,-4.8881,-4.8918,-4.8959,-4.9046,-4.9081,-4.9151,-4.9096,-4.9172,-4.9224,-4.9195,-4.9292,-4.9317,-4.937,-4.9481,-4.9531,-4.9504,-4.9704,-4.9643,-4.9652,-4.9657,-4.9721,-4.974,-4.9758,-4.9526,-4.9525,-4.9524,0,0,-4.9007,-4.9042,-4.9125,-4.9162,-4.9217,-4.9231,-4.9252,-4.9302,-4.9317,-4.9415,-4.9395,-4.9458,-4.9571,-4.961,-4.9644,-4.979,-4.9771,-4.9811,-4.9883,-4.9948,-4.9964,-4.9979,-5.003,-5.0049,-4.9822,-4.9823,-4.9823,0,-4.9061,-4.9165,-4.917,-4.9248,-4.9287,-4.9267,-4.9352,-4.9388,-4.946,-4.9488,-4.9457,-4.96,-4.9634,-4.9755,-4.9791,-4.982,-4.9844,-4.9803,-4.9962,-4.9976,-4.999,-5.0039,-5.0059,-4.9827,-4.9827,-4.9826,-4.9826,0,-4.923,-4.9302,-4.9364,-4.9435,-4.9481,-4.9563,-4.9581,-4.9628,-4.9625,-4.9643,-4.9744,-4.9785,-4.9856,-4.9886,-4.9883,-5.0007,-4.9989,-4.996,-4.9903,-5.0014,-5.006,-5.0079,-4.9833,-4.9832,-4.983,-4.9829,0,0,-4.9384,-4.946,-4.9482,-4.9515,-4.9576,-4.9633,-4.9715,-4.9785,-4.9825,-4.9878,-4.9946,-5.0045,-5.0019,-5.0059,-5.0061,-5.0118,-5.0232,-5.0083,-5.0084,-5.0108,-5.0372,-5.0391,-5.0413,-5.0221,-5.0225,-5.0227,-5.0367,0,-4.9513,-4.9656,-4.9665,-4.9794,-4.9862,-4.9847,-4.9918,-4.9964,-4.9984,-5.0046,-5.0069,-5.0138,-5.01,-5.0124,-5.018,-5.0206,-5.0284,-5.0196,-5.0284,-5.0287,-5.0269,-5.0437,-5.0457,-5.0586,-5.0385,-5.0388,-5.039,0,-4.9682,-4.974,-4.9877,-4.9931,-4.996,-5.0024,-5.009,-5.0149,-5.0202,-5.0213,-5.026,-5.0255,-5.034,-5.0283,-5.0401,-5.0341,-5.0379,-5.0397,-5.0403,-5.0409,-5.0343,-5.0446,-5.0628,-5.0646,-5.0419,-5.0417,-5.0415,0,-4.978,-4.9893,-4.999,-5.0019,-5.0084,-5.013,-5.0159,-5.0209,-5.0251,-5.0311,-5.0338,-5.0407,-5.0444,-5.0497,-5.0512,-5.0469,-5.063,-5.0574,-5.0641,-5.0641,-5.0672,-5.067,-5.0861,-5.0701,-5.07,-5.07,-5.07,0,-4.9922,-5.0006,-5.0035,-5.0094,-5.0188,-5.0199,-5.0293,-5.032,-5.0365,-5.0429,-5.0421,-5.0482,-5.0499,-5.0564,-5.0576,-5.0672,-5.0689,-5.0701,-5.0702,-5.07,-5.0698,-5.0722,-5.0713,-5.0705,-5.0704,-5.0703,-5.0702,0,-5.0045,-5.0068,-5.0172,-5.0227,-5.0243,-5.031,-5.0357,-5.0415,-5.0437,-5.0519,-5.0539,-5.0572,-5.0649,-5.0669,-5.0761,-5.0769,-5.0882,-5.0876,-5.0864,-5.0863,-5.0928,-5.0921,-5.114,-5.1169,-5.0991,-5.0993,-5.0994,0,-5.0132,-5.0197,-5.026,-5.0303,-5.0335,-5.0405,-5.0449,-5.0464,-5.051,-5.0578,-5.0628,-5.0704,-5.0764,-5.0887,-5.092,-5.099,-5.0985,-5.1057,-5.0995,-5.0992,-5.0985,-5.098,-5.0986,-5.1067,-5.1069,-5.1071,-5.1072,0,-5.0286,-5.0295,-5.0359,-5.0428,-5.0482,-5.0537,-5.059,-5.0626,-5.0649,-5.0702,-5.0781,-5.0828,-5.0923,-5.0998,-5.107,-5.1101,-5.1091,-5.1092,-5.1111,-5.1108,-5.1097,-5.1103,-5.0893,-5.1086,-5.1085,-5.1084,-5.1083,-5.1082,-5.0393,-5.045,-5.0504,-5.0576,-5.0619,-5.0669,-5.0726,-5.0756,-5.0822,-5.09,-5.0906,-5.0991,-5.1046,-5.1141,-5.1177,-5.1245,-5.1223,-5.1251,-5.1258,-5.1264,-5.1269,-5.1089,-5.1258,-5.1258,-5.1257,-5.1257,-5.1257,0,-5.0544,-5.0579,-5.0646,-5.0721,-5.0779,-5.0767,-5.0826,-5.0875,-5.095,-5.1002,-5.1063,-5.1155,-5.1229,-5.1269,-5.1343,-5.139,-5.1387,-5.1408,-5.1404,-5.1411,-5.1284,-5.1259,-5.1409,-5.1409,-5.1409,-5.1409,-5.1409,-5.1409,-5.0629,-5.0725,-5.0742,-5.086,-5.0895,-5.0978,-5.1013,-5.1061,-5.1103,-5.1205,-5.1267,-5.1293,-5.1342,-5.142,-5.1488,-5.1498,-5.1525,-5.1549,-5.1556,-5.1436,-5.142,-5.1405,-5.1382,-5.1555,-5.1555,-5.1678,-5.1679,-5.168]},{"header":{"parameterUnit":"m.s-1","parameterCategory":1,"la1":30.2991,"la2":30.254,"lo1":-89.0895,"lo2":-89.0444,"dy":0.0017,"dx":0.0017,"nx":28,"ny":28,"refTime":"2026-03-04T09:00:00:Z","depth":0,"parameterNumber":3,"parameterNumberName":"V-component_of_WINDS"},"data":[0,0,0,0,0,0,0,0,0,0,0,0,0,0,0,0,0,0,0,0,0,0,0,0,0,0,0,0,0,0,0,0,0,0,0,0,0,0,0,0,0,0,0,0,0,0,0,0,0,0,0,0,0,0,0,0,0,0,1.535,1.535,0,1.5416,1.5417,1.5417,1.5448,1.5448,1.5448,1.5448,1.5513,1.5515,1.5517,0,0,0,0,0,0,0,0,0,0,0,0,0,1.525,1.5251,1.5349,1.535,1.5351,1.5416,1.5417,1.5418,1.5448,1.5448,1.5448,1.5448,1.5513,1.5515,1.5517,0,0,0,0,0,0,0,0,0,0,0,0,0,1.5302,1.5252,1.5349,1.5374,1.5377,1.5416,1.5417,1.5418,1.5448,1.5448,1.5448,1.5448,1.5512,1.5515,1.5517,1.5536,0,0,1.5526,1.5527,0,0,0,0,0,0,0,0,1.5299,1.5306,1.537,1.5372,1.5376,1.5424,1.5406,1.5457,1.5448,1.5421,1.5448,1.5448,1.5483,1.5488,1.5501,1.5539,1.5542,1.5526,1.5528,1.5529,1.5529,0,0,0,0,0,0,0,1.5295,1.5303,1.5376,1.537,1.5374,1.5382,1.5389,1.5416,1.5452,1.5423,1.5426,1.5433,1.5485,1.5498,1.5503,1.5543,1.5526,1.5528,1.553,1.5531,1.5603,1.5603,0,0,0,0,0,0,1.5288,1.53,1.5374,1.5378,1.5336,1.5384,1.5392,1.5408,1.5452,1.5458,1.5433,1.5434,1.5494,1.55,1.5505,1.5532,1.5529,1.5531,1.5533,1.5603,1.5603,1.5603,0,0,0,0,0,0,1.5285,1.5294,1.5371,1.534,1.535,1.5386,1.5404,1.541,1.5423,1.5459,1.5466,1.544,1.5494,1.5501,1.5529,1.5535,1.5532,1.5535,1.5602,1.5603,1.5603,1.5584,0,0,0,0,0,0,1.5282,1.5293,1.53,1.5339,1.5351,1.5393,1.5404,1.5411,1.5428,1.543,1.5467,1.5473,1.5494,1.5525,1.5532,1.5538,1.5537,1.5602,1.5603,1.5603,1.5584,1.5584,1.5583,0,0,0,0,0,1.5279,1.5291,1.53,1.5309,1.5361,1.5393,1.54,1.5425,1.5428,1.5436,1.546,1.5472,1.5533,1.5527,1.5535,1.5543,1.5602,1.5602,1.5603,1.5585,1.5584,1.5583,0,0,0,0,0,0,1.5249,1.5296,1.5307,1.5332,1.5359,1.5398,1.5408,1.5423,1.5448,1.5449,1.5478,1.5487,1.5512,1.553,1.5523,1.5565,1.5569,1.5571,1.5552,1.5552,1.5551,1.5546,1.5539,0,0,0,0,0,1.5245,1.5268,1.5308,1.5326,1.5339,1.5372,1.5387,1.5404,1.5432,1.5443,1.5469,1.5496,1.5522,1.5538,1.5563,1.5588,1.5597,1.5597,1.5596,1.5596,1.5597,1.5615,1.5616,1.5605,1.5605,1.5605,0,0,1.5238,1.5267,1.5279,1.5321,1.5344,1.5367,1.5381,1.5404,1.5422,1.5447,1.5475,1.5495,1.5527,1.5555,1.5568,1.557,1.5603,1.5597,1.5596,1.5598,1.5616,1.5617,1.5617,1.5606,1.5606,1.5606,0,0,1.5236,1.526,1.5279,1.5303,1.5338,1.536,1.5365,1.5403,1.5418,1.5448,1.5468,1.549,1.5532,1.5555,1.5572,1.5585,1.5598,1.5592,1.5589,1.5606,1.5607,1.5608,1.5614,1.5615,1.5594,1.5594,1.5594,0,1.5222,1.5259,1.5287,1.5311,1.5329,1.5355,1.5376,1.5397,1.5438,1.5451,1.5454,1.551,1.5533,1.5568,1.5571,1.5584,1.5591,1.5587,1.5604,1.5606,1.5607,1.5613,1.5615,1.5593,1.5593,1.5593,1.5593,0,1.5241,1.5266,1.5277,1.5319,1.5339,1.5361,1.5393,1.541,1.5427,1.5449,1.548,1.551,1.5543,1.5553,1.5567,1.559,1.5591,1.5599,1.5603,1.5606,1.5613,1.5615,1.5592,1.5592,1.5592,1.5592,0,0,1.5219,1.5279,1.5283,1.5304,1.5346,1.5367,1.5391,1.5425,1.544,1.5468,1.549,1.5528,1.5537,1.5556,1.5575,1.5589,1.56,1.5596,1.5597,1.5597,1.5629,1.5624,1.5626,1.561,1.561,1.5611,1.5627,0,1.5225,1.527,1.5298,1.5331,1.5357,1.5383,1.5405,1.5434,1.5456,1.5481,1.5506,1.5533,1.5541,1.5554,1.5569,1.5595,1.5607,1.5595,1.5631,1.5632,1.5622,1.5629,1.5622,1.5636,1.563,1.563,1.563,0,1.5236,1.5267,1.5303,1.5347,1.5358,1.5377,1.5413,1.5436,1.547,1.5486,1.551,1.5529,1.5557,1.556,1.56,1.5591,1.5608,1.5624,1.5625,1.5629,1.5631,1.5634,1.5641,1.5643,1.5634,1.5634,1.5634,0,1.5219,1.5269,1.5298,1.5315,1.5366,1.5379,1.5401,1.5435,1.5455,1.5486,1.55,1.5533,1.5551,1.5577,1.5606,1.5605,1.5644,1.5648,1.5658,1.5657,1.5664,1.5663,1.5674,1.5674,1.5674,1.5674,1.5674,0,1.5222,1.5244,1.5292,1.531,1.5336,1.5369,1.5394,1.5418,1.5449,1.5473,1.5498,1.552,1.5556,1.5583,1.5606,1.5637,1.5644,1.5659,1.5664,1.5657,1.5655,1.5668,1.5668,1.5675,1.5675,1.5675,1.5674,0,1.5206,1.5239,1.5274,1.532,1.5333,1.535,1.5391,1.541,1.5435,1.5465,1.5474,1.5514,1.5547,1.5579,1.5622,1.5638,1.5669,1.5676,1.5658,1.5661,1.567,1.5669,1.569,1.5695,1.569,1.569,1.569,0,1.5206,1.5224,1.5274,1.5293,1.5315,1.5344,1.5365,1.5399,1.5421,1.5464,1.5478,1.5514,1.5544,1.5596,1.5629,1.5663,1.5672,1.5677,1.5677,1.567,1.5674,1.5673,1.5676,1.5676,1.5676,1.5676,1.5676,0,1.5203,1.522,1.525,1.5287,1.5313,1.5343,1.5374,1.5388,1.5428,1.5451,1.5487,1.5511,1.5558,1.5593,1.5632,1.5655,1.5673,1.5676,1.5681,1.5673,1.5662,1.567,1.5657,1.5675,1.5675,1.5675,1.5675,1.5675,1.5196,1.5214,1.5254,1.5288,1.5316,1.5345,1.5367,1.5396,1.5427,1.5468,1.5487,1.5523,1.556,1.5615,1.5638,1.5668,1.5672,1.5677,1.5679,1.568,1.5679,1.5657,1.5675,1.5675,1.5675,1.5675,1.5675,0,1.5195,1.5223,1.5254,1.5299,1.5326,1.5342,1.5379,1.5401,1.5433,1.5467,1.5497,1.5539,1.5575,1.5612,1.565,1.5667,1.5676,1.5676,1.5675,1.5681,1.5673,1.5666,1.5668,1.5668,1.5668,1.5668,1.5668,1.5668,1.5198,1.5231,1.5253,1.5301,1.5329,1.5366,1.5386,1.5414,1.5442,1.5488,1.5519,1.5543,1.5579,1.5621,1.5655,1.5665,1.5679,1.5676,1.5689,1.568,1.5681,1.5681,1.5675,1.5679,1.5679,1.5694,1.5694,1.5694]}]]